Regional Weather Roundup
Issued by NWS

Home | Current Version | Previous Version | Graphics & Text | Print | Product List | Glossary Off
Versions: 1 2 3 4 5 6 7 8 9 10 11 12 13 14 15 16 17 18 19 20 21 22 23 24 25 26 27 28 29 30 31 32 33 34 35 36 37 38 39 40 41 42 43 44 45 46 47 48 49 50

000
ASUS43 KTOP 231908
RWRKS

WEATHER ROUNDUP FOR KANSAS
NATIONAL WEATHER SERVICE GOODLAND KS
200 PM CDT WED APR 23 2014

NOTE:  "FAIR" INDICATES FEW OR NO CLOUDS BELOW 12,000 FEET WITH NO
SIGNIFICANT WEATHER AND/OR OBSTRUCTIONS TO VISIBILITY.

KSZ001>006-013>018-027>032-041>047-232000-
NORTHWEST KANSAS

CITY           SKY/WX    TMP DP  RH WIND       PRES   REMARKS
GOODLAND       CLOUDY    79  32  18 W13       29.57S
HAYS           MOSUNNY  N/A N/A N/A S35G51    29.58F
HILL CITY      PTSUNNY   85  49  28 SW26G37   29.55F
RUSSELL        MOSUNNY   85  50  29 S36G46    29.61F
$$

KSZ061>065-074>080-084>089-232000-
SOUTHWEST KANSAS

CITY           SKY/WX    TMP DP  RH WIND       PRES   REMARKS
DODGE CITY     PTSUNNY   81  48  31 S35G43    29.66F
ELKHART          N/A     79  45  30 S14         N/A
GARDEN CITY    PTSUNNY   82  49  31 S29G44    29.61F
GREAT BEND     MOSUNNY   81  54  39 S35G40    29.63S
LIBERAL        PTSUNNY   82  52  34 S31       29.66F
PRATT          CLOUDY    73  48  40 S26G33    29.73R
$$

KSZ066>073-081>083-090>101-232000-
SOUTHEAST KANSAS

CITY           SKY/WX    TMP DP  RH WIND       PRES   REMARKS
CHANUTE        SUNNY     79  48  33 S18G25    29.83F
COFFEYVILLE    SUNNY     80  49  33 S18G26    29.83F
HUTCHINSON     PTSUNNY   81  48  31 S37G46    29.67F
MEDICINE LODGE   N/A     79  48  33 S18       29.72F
NEWTON         MOSUNNY   82  48  30 S30G37    29.76F
PARSONS        SUNNY     81  46  29 S20       29.84F
WICHITA INTL   PTSUNNY   84  48  28 S26G38    29.73F
WICHITA JABRA  SUNNY     83  50  31 S26G35    29.75F
WICHITA MCCONL SUNNY     83  46  26 S23G37    29.75F
$$

KSZ007>012-019>026-033>040-048>060-102>105-232000-
NORTHEAST KANSAS

CITY           SKY/WX    TMP DP  RH WIND       PRES   REMARKS
CONCORDIA      CLOUDY    74  50  42 S28G38    29.65F
EMPORIA        SUNNY     78  46  32 S22G31    29.78F
LAWRENCE       MOSUNNY   75  41  29 SE24G32   29.81F
MANHATTAN      CLOUDY    76  44  32 S20G28    29.74F
OLATHE IND     SUNNY     71  41  33 SE23G30   29.84F
OLATHE EXE     SUNNY     69  41  36 SE21G28   29.84F
SALINA         LGT RAIN  81  48  31 S25G36    29.68F
TOPEKA BILLARD PTSUNNY   76  42  29 SE20G29   29.79F
TOPEKA FORBES  PTSUNNY   75  41  29 SE23G30   29.78F
$$



USA.gov is the U.S. government's official web portal to all federal, state and local government web resources and services.